Zurück zum Katalog

STARLINK-30988

AktivKommunikationVLEO
NORAD 58529·PAYLOAD·🇺🇸 United States

Gestartet Dec 7, 2023 von Cape Canaveral Space Force Station

Loading…

Nächste Überflüge (nächste 24 Stunden)

TLE

AktuellSource: CelesTrak SupGP

Epoche: Sep 14, 2026, 22:11 UTC

1 58529C 23191X   26257.92479167 -.00034838  00000+0 -12622-2 0  2571
2 58529  43.0026 114.6615 0001241 276.4817  68.0588 15.27586859    15

Verfolge STARLINK-30988 in Echtzeit mit AllMySat

Download on the App Store